Regional Weather Roundup
Issued by NWS Bismarck, ND

Home | Current Version | Previous Version | Text Only | Print | Product List | Glossary On
Versions: 1 2 3 4 5 6 7 8 9 10 11 12 13 14 15 16 17 18 19 20 21 22 23 24 25 26 27 28 29 30 31 32 33 34 35 36 37 38 39 40 41 42 43 44 45 46 47 48 49 50
000
ASUS43 KBIS 311901
RWRBIS

NWR BROADCAST TEXT
NATIONAL WEATHER SERVICE BISMARCK ND
100 PM CST SAT JAN 31 2015

NOTE: "FAIR" INDICATES FEW OR NO CLOUDS BELOW 12,000 FEET WITH NO
SIGNIFICANT WEATHER AND/OR OBSTRUCTIONS TO VISIBILITY.


CITY           SKY/WX    TMP DP  RH WIND       PRES   REMARKS
WILLISTON      LGT SNOW  10   4  76 NE13      30.31S VSB 3/4 WCI  -5
MINOT          LGT SNOW   3  -4  72 NE15      30.37F VSB 3/4 WCI -16
MINOT AFB      LGT SNOW   4   0  85 NE15      30.38F FOG     WCI -15
BISMARCK       MOSUNNY   15   4  61 E15G24    30.28F WCI   0
DICKINSON      LGT SNOW  13   9  84 E20       30.14F FOG     WCI  -5
GARRISON         N/A      8   0  69 NE12      30.31R WCI  -7
HETTINGER ARPT CLOUDY    18  16  92 E20       30.12S FOG     WCI   2
JAMESTOWN      CLOUDY    10  -3  55 NE23      30.30F WCI -10
CARRINGTON     MOCLDY     7  -2  66 MISG      30.34F
CROSBY         LGT SNOW   5   1  85 E16       30.38S WCI -14
HAZEN          CLOUDY    12   0  57 NE14G20   30.30S WCI  -3
OAKES            N/A     14   1  57 NE22G28   30.28S WCI  -4
WATFORD CITY   LGT SNOW  10   5  79 E17       30.25F WCI  -7
$$

CITY           SKY/WX    TMP DP  RH WIND       PRES   REMARKS
GRAND FORKS    CLOUDY     2  -8  63 N18       30.46S WCI -19
GRAND FORKS AF MOSUNNY    1 -10  59 N20G26    30.46S WCI -20
DEVILS LAKE    MOSUNNY    0 -11  60 NE17G23   30.40S WCI -21
FARGO          SUNNY     13  -3  49 N21       30.35F WCI  -5
GWINNER        CLEAR     16   3  57 N22       30.30S WCI  -2
$$

CITY           SKY/WX    TMP DP  RH WIND       PRES   REMARKS
ABERDEEN       PTSUNNY   17   3  54 NE18      30.25F WCI   1
MOBRIDGE       CLOUDY    20  14  77 NE13      30.19S WCI   7
BUFFALO          N/A     22  20  92 E15       29.97R WCI   9
RAPID CITY     FOG       26  25  96 E10       29.99F VSB 1/4 WCI  16
GLASGOW        HVY SNOW  13   8  81 NE23      30.23R VSB 1/4 WCI  -6
SIDNEY         CLOUDY    14   9  79 NE16G25   30.26R VSB 3/4 WCI  -2
WOLF POINT     SNOW      14   9  80 E26G32    30.26R VSB 1/2 WCI  -6
GLENDIVE       CLOUDY    21  18  86 E16       30.12F WCI   7
MILES CITY     CLOUDY    27  24  89 NE17      30.02R FOG     WCI  14
BAKER          CLOUDY    21  20  96 E25G32    30.03F FOG     WCI   4
$$

CITY           SKY/WX    TMP DP  RH WIND       PRES   REMARKS
BILLINGS       CLOUDY    31  24  75 N15       30.04R
GREAT FALLS    LGT SNOW  16  11  80 NW15      30.26R WCI   1
$$




USA.gov is the U.S. government's official web portal to all federal, state and local government web resources and services.